This is the latest recevied weather packets stored in our database for station/object SA6BET-2. If no packets are shown the sender has not sent any weather packets the latest 10 day(s).
| Time | Temp. | Humidity | Pressure | Rain* | Wind** | Luminosity | Snow |
|---|---|---|---|---|---|---|---|
| 1778049266 | 18.89° C | 100% | 1014.1 hPa | - | - | - | - |
| 1778048366 | 18.33° C | 100% | 1014.2 hPa | - | - | - | - |
| 1778047466 | 18.33° C | 100% | 1014.1 hPa | - | - | - | - |
| 1778046566 | 17.22° C | 100% | 1014.1 hPa | - | - | - | - |
| 1778045665 | 16.67° C | 100% | 1013.8 hPa | - | - | - | - |
| 1778044765 | 16.67° C | 100% | 1013.7 hPa | - | - | - | - |
| 1778043865 | 16.11° C | 100% | 1013.5 hPa | - | - | - | - |
| 1778042965 | 16.67° C | 100% | 1013.2 hPa | - | - | - | - |
| 1778042065 | 16.67° C | 100% | 1013.3 hPa | - | - | - | - |
| 1778041165 | 16.67° C | 100% | 1013 hPa | - | - | - | - |
| 1778040265 | 16.67° C | 100% | 1013 hPa | - | - | - | - |
| 1778039757 | 16.67° C | 100% | 1013.1 hPa | - | - | - | - |
| 1778039364 | 16.67° C | 100% | 1013.1 hPa | - | - | - | - |
| 1778038464 | 17.22° C | 100% | 1013.1 hPa | - | - | - | - |
| 1778037564 | 16.67° C | 100% | 1013.1 hPa | - | - | - | - |
| 1778036664 | 17.22° C | 100% | 1013.1 hPa | - | - | - | - |
| 1778035764 | 17.22° C | 100% | 1013.1 hPa | - | - | - | - |
| 1778034863 | 17.22° C | 100% | 1013.1 hPa | - | - | - | - |
| 1778033963 | 17.22° C | 100% | 1013.1 hPa | - | - | - | - |
| 1778033063 | 17.22° C | 100% | 1013.1 hPa | - | - | - | - |
| 1778032163 | 17.78° C | 100% | 1013.2 hPa | - | - | - | - |
| 1778031263 | 17.78° C | 100% | 1013.3 hPa | - | - | - | - |
| 1778030363 | 17.78° C | 100% | 1013.2 hPa | - | - | - | - |
| 1778029462 | 17.78° C | 100% | 1013.2 hPa | - | - | - | - |
| 1778028562 | 17.78° C | 100% | 1013.3 hPa | - | - | - | - |
* Rain since midnight (hover to see other rain measurements)
** Current wind speed in m/s (hover to see current wind gust speed)